Location: Unspecified
(0.0000°N, 0.0000°E)
Time: 20:41:30
(UTC+01:00)

Iridium 76 - Visible Passes

Search period start: 03 December 2016 00:00
Search period end: 13 December 2016 00:00
Orbit: 776 x 779 km, 86.4° (Epoch: 03 December)

Date Brightness Start Highest point End Pass type
(mag) Time Alt. Az. Time Alt. Az. Time Alt. Az.
03 Dec 8.5 05:30:42 10° ENE 05:33:04 13° E 05:35:26 10° ESE visible
03 Dec 8.7 19:45:16 10° WSW 19:47:01 12° W 19:48:46 10° WNW visible
04 Dec 8.0 19:09:15 10° SSW 19:13:35 26° W 19:17:53 10° NW visible
05 Dec 6.7 06:01:35 10° NNE 06:06:34 48° E 06:11:34 10° SSE visible
06 Dec 8.0 05:29:12 10° NE 05:33:07 22° E 05:37:02 10° SE visible
07 Dec 8.4 19:10:26 10° SW 19:13:38 16° W 19:16:49 10° NW visible
08 Dec 5.7 06:01:26 10° N 06:06:38 79° E 06:11:51 10° S visible
09 Dec 7.2 05:28:29 10° NNE 05:33:11 35° E 05:37:53 10° SSE visible
10 Dec 8.3 04:56:41 10° NE 04:59:44 16° E 05:02:47 10° SE visible
11 Dec 5.5 06:01:33 10° N 06:06:41 64° W 06:11:52 10° S visible
12 Dec 6.2 05:28:08 10° NNE 05:33:14 57° E 05:38:21 10° SSE visible
